CAPE
23 16 5 0 0 0 0 1 0 0 0 0 0 0 0 0 0 0 0 0 0 0 0 0 0 0 0 0 0 0 0 0 0 0 0 0 0 0 0 0 0 0 0 0
17 9 0 0 0 21 34 2 0 0 2 0 0 0 0 0 0 0 0 0 1 0 0 0 0 0 0 0 0 0 0 0 0 0 0 0 0 0 0 0 0 0 0 0
16 4 0 1 0 11 25 2 0 3 10 1 1 2 0 0 4 0 0 0 1 0 0 0 0 0 0 0 0 0 0 0 0 0 0 0 0 0 0 0 0 0 0 0
11 13 13 4 0 0 4 6 0 0 0 1 0 0 0 0 0 2 8 1 0 1 0 0 0 0 1 0 0 0 0 0 0 0 0 0 0 0 0 0 0 0 0 0
5 4 5 0 0 2 11 0 0 0 0 0 0 0 0 0 0 0 0 0 0 1 0 0 2 0 0 0 0 0 0 0 0 0 0 0 0 0 0 0 0 0 0 0
25 1 0 0 0 0 1 0 0 0 0 0 1 0 0 0 0 0 0 0 0 0 0 0 0 0 0 0 0 0 0 0 0 0 0 0 0 0 0 0 0 0 0 0
3 0 0 0 0 0 0 0 0 0 0 0 0 0 0 1 0 0 0 0 0 0 0 0 0 0 0 0 0 0 0 2 2 0 0 0 0 0 0 0 0 0 0 0
1 0 0 0 0 0 0 0 0 0 0 0 0 0 0 0 0 0 0 3 0 0 0 0 0 0 0 0 0 0 1 1 1 0 0 0 0 0 0 0 0 0 0 0
5 0 0 0 0 0 0 0 0 0 0 0 0 0 0 0 0 0 0 0 0 0 0 0 0 0 0 0 0 0 0 4 7 0 0 0 0 0 0 0 0 0 0 0
2 0 0 0 0 0 0 0 0 0 0 0 0 0 0 0 0 0 0 0 0 0 0 0 0 0 0 0 0 0 0 0 0 0 1 0 0 0 0 0 0 0 0 0
0 0 0 0 0 0 0 0 0 0 0 0 0 0 0 0 0 0 0 0 0 0 0 0 0 0 0 0 0 0 0 0 0 0 0 0 0 0 0 0 0 0 0 0
2 0 0 0 0 0 0 0 0 0 0 0 0 0 0 0 0 0 0 0 0 0 0 0 0 0 0 0 0 0 0 0 0 0 0 0 0 0 0 0 0 0 0 0
0 0 0 0 0 0 0 0 0 0 0 0 0 0 0 0 0 0 0 0 0 0 0 0 0 0 0 0 0 0 0 0 0 0 0 0 0 0 0 0 0 0 0 0
1 2 2 0 4 0 0 0 0 0 0 0 0 0 0 0 0 0 0 0 0 0 0 0 0 0 0 0 0 0 0 0 0 0 0 0 0 0 0 0 0 0 0 0
14 21 10 0 1 1 0 0 0 0 0 0 0 0 0 0 0 0 0 0 0 0 0 0 0 0 0 0 0 0 0 0 0 0 0 0 0 0 0 0 0 0 0 0
5 0 0 0 19 7 0 0 0 0 0 0 0 0 0 0 0 0 0 0 0 0 0 0 0 0 0 0 0 0 0 0 0 0 0 0 0 0 0 0 0 0 0 0
0 0 1 2 6 0 0 0 0 0 0 0 0 0 0 0 0 0 0 0 0 0 0 0 0 0 0 0 0 0 0 0 0 0 0 0 0 0 0 0 0 0 0 0
1 0 5 10 4 0 0 4 2 0 0 0 0 0 0 0 0 0 0 0 0 0 0 0 0 0 0 1 0 0 0 0 0 0 0 0 1 0 0 0 0 0 0 0
1 11 13 0 0 0 0 5 6 3 0 0 0 0 0 0 0 0 0 0 0 0 0 0 0 0 0 0 0 0 0 1 0 0 0 0 0 0 0 0 0 0 0 0
19 0 0 0 0 3 9 0 0 0 0 0 0 0 0 0 0 0 0 0 0 0 0 0 0 0 0 0 2 2 2 1 0 0 0 0 0 0 0 0 0 0 0 0
0 0 0 0 0 0 0 0 0 0 0 0 0 0 0 0 0 0 0 0 0 0 0 0 0 0 0 5 2 0 0 0 1 2 1 1 0 0 0 0 1 0 1 0
0 0 0 0 0 0 0 0 0 0 0 0 0 0 0 0 0 0 0 0 0 0 0 0 0 0 0 0 0 0 0 0 0 0 0 0 2 1 1 2 2 1 0 0
0 0 0 0 0 0 0 0 0 0 0 0 0 0 0 0 0 0 0 0 0 0 0 0 0 0 0 0 0 0 0 0 0 0 0 0 1 1 1 1 1 0 0 0
0 0 0 0 0 0 0 0 0 0 0 0 0 0 0 0 0 0 0 0 0 0 0 0 0 0 0 0 0 0 0 0 0 0 0 0 0 1 0 0 0 0 0 0
0 0 0 0 0 0 0 0 0 0 0 0 0 0 0 0 0 0 0 0 0 0 0 0 0 0 0 0 0 0 0 0 0 0 0 0 0 0 0 0 0 0 0 0
0 0 0 0 0 0 0 0 0 0 0 0 0 0 0 0 0 0 0 0 0 0 0 0 0 0 0 0 0 0 0 0 0 0 0 0 0 0 0 0 0 0 0 0
0 0 0 0 0 0 0 0 0 0 0 0 0 0 0 0 0 0 0 3 0 0 0 0 0 0 0 0 0 0 0 0 0 0 0 0 0 0 0 0 0 0 0 0
CIN
-0 -2 -5 -0 -0 -0 -0 -4 -0 -0 -0 -0 -0 -0 -0 -0 -0 -0 -0 -0 -0 -0 -0 -0 -0 -0 -0 -0 -0 -0 -0 -0 -0 -0 -0 -0 -0 -0 -0 -0 -0 -0 -0 -0
-0 -2 -3 -0 -1 -8 -5 -4 -1 -1 -7 -0 -0 -0 -0 -0 -0 -0 -0 -0 -8 -0 -0 -0 -0 -0 -0 -0 -0 -0 -0 -0 -0 -0 -0 -0 -0 -0 -0 -0 -0 -0 -0 -0
-0 -6 -0 -3 -7 -14 -14 -5 -0 -3 -1 -2 -4 -2 -3 -1 -7 -0 -0 -0 -4 -0 -0 -0 -3 -4 -0 -0 -0 -0 -0 -0 -0 -0 -0 -0 -0 -0 -0 -0 -0 -0 -0 -0
-0 -0 -1 -6 -0 -0 -14 -6 -0 -0 -0 -0 -0 -0 -0 -0 -0 -3 -2 -1 -3 -2 -0 -0 -0 -0 -2 -0 -0 -0 -0 -0 -0 -0 -0 -0 -0 -0 -0 -0 -0 -0 -0 -0
-0 -0 -0 -0 -0 -8 -9 -0 -0 -0 -0 -0 -0 -0 -0 -0 -1 -1 -2 -0 -0 -8 -0 -0 -8 -0 -0 -0 -0 -0 -0 -0 -0 -0 -0 -0 -0 -0 -0 -0 -0 -0 -0 -0
-1 -0 -0 -0 -0 -0 -7 -0 -0 -0 -0 -0 -1 -0 -0 -0 -1 -0 -0 -0 -0 -0 -0 -0 -0 -0 -0 -0 -0 -0 -0 -0 -0 -0 -0 -0 -0 -0 -0 -0 -0 -0 -0 -0
-0 -0 -0 -0 -0 -0 -0 -0 -0 -0 -0 -0 -0 -0 -0 -2 -0 -0 -0 -4 -0 -0 -0 -0 -0 -0 -0 -0 -0 -0 -0 -1 -0 -0 -0 -0 -0 -0 -0 -0 -0 -0 -0 -0
-0 -0 -0 -0 -0 -0 -0 -0 -0 -0 -0 -0 -0 -0 -0 -0 -0 -0 -1 -6 -0 -0 -0 -0 -0 -0 -0 -0 -0 -0 -0 -0 -6 -2 -3 -0 -0 -0 -0 -0 -0 -0 -0 -0
-0 -0 -0 -0 -0 -0 -0 -0 -0 -0 -0 -0 -0 -0 -0 -0 -0 -0 -0 -0 -0 -0 -0 -0 -0 -0 -0 -0 -0 -0 -0 -2 -1 -1 -0 -0 -0 -0 -0 -0 -0 -0 -0 -0
-0 -0 -0 -0 -0 -0 -0 -0 -0 -0 -0 -0 -0 -0 -0 -0 -0 -0 -0 -0 -0 -0 -0 -0 -0 -0 -0 -0 -0 -0 -0 -2 -0 -0 -1 -0 -0 -0 -0 -0 -0 -0 -0 -0
-0 -0 -0 -0 -0 -0 -0 -0 -0 -0 -0 -0 -0 -0 -0 -0 -0 -0 -0 -0 -0 -0 -0 -0 -0 -0 -0 -0 -0 -0 -0 -2 -0 -0 -0 -0 -0 -0 -0 -0 -0 -0 -0 -0
-6 -0 -0 -0 -0 -0 -0 -0 -0 -0 -0 -0 -0 -0 -0 -0 -0 -0 -0 -0 -0 -0 -0 -0 -0 -0 -0 -0 -0 -0 -0 -0 -0 -0 -0 -0 -0 -0 -0 -0 -0 -0 -0 -0
-0 -0 -0 -0 -0 -0 -0 -0 -0 -0 -0 -0 -0 -0 -0 -0 -0 -0 -0 -0 -0 -0 -0 -0 -0 -0 -0 -0 -0 -0 -0 -0 -0 -0 -0 -0 -0 -0 -0 -0 -0 -0 -0 -0
-3 -2 -0 -0 -1 -0 -0 -0 -0 -0 -0 -0 -0 -0 -0 -0 -0 -0 -0 -0 -0 -0 -0 -0 -0 -0 -0 -0 -0 -0 -0 -0 -0 -0 -0 -0 -0 -0 -0 -0 -0 -0 -0 -0
-0 -0 -0 -0 -0 -1 -0 -0 -0 -0 -0 -0 -0 -0 -0 -0 -0 -0 -0 -0 -0 -0 -0 -0 -0 -0 -0 -0 -0 -0 -0 -0 -0 -0 -0 -0 -0 -0 -0 -0 -0 -0 -0 -0
-2 -0 -0 -0 -0 -0 -0 -0 -0 -0 -0 -0 -0 -0 -0 -0 -0 -0 -0 -0 -0 -0 -0 -0 -0 -0 -0 -0 -0 -0 -0 -0 -0 -0 -0 -0 -0 -0 -0 -0 -0 -0 -0 -0
-0 -0 -0 -0 -0 -0 -0 -0 -0 -0 -0 -0 -0 -0 -0 -0 -0 -0 -0 -0 -0 -0 -1 -0 -0 -0 -0 -0 -0 -0 -0 -0 -0 -0 -0 -0 -0 -0 -0 -0 -0 -0 -0 -0
-0 -0 -0 -0 -0 -0 -0 -4 -0 -0 -0 -0 -0 -0 -0 -0 -0 -0 -0 -0 -0 -0 -0 -0 -0 -0 -0 -1 -0 -0 -0 -0 -0 -0 -0 -0 -0 -0 -0 -0 -0 -0 -0 -0
-0 -0 -0 -0 -0 -0 -0 -2 -3 -8 -0 -0 -0 -0 -0 -0 -0 -0 -0 -0 -0 -0 -0 -0 -0 -0 -0 -0 -0 -0 -0 -1 -0 -0 -0 -0 -0 -0 -0 -0 -0 -0 -0 -0
-1 -0 -0 -0 -0 -7 -5 -0 -0 -0 -0 -0 -0 -0 -0 -0 -0 -0 -0 -0 -0 -0 -0 -0 -0 -0 -0 -0 -4 -2 -1 -1 -0 -0 -0 -0 -0 -0 -0 -0 -0 -0 -0 -0
-0 -0 -0 -0 -0 -0 -0 -0 -0 -0 -0 -0 -0 -0 -0 -0 -0 -0 -0 -0 -0 -2 -0 -0 -0 -0 -0 -2 -0 -0 -0 -0 -0 -0 -0 -0 -0 -0 -0 -0 -0 -0 -0 -0
-0 -0 -0 -0 -0 -0 -0 -0 -0 -0 -0 -0 -0 -0 -0 -0 -0 -0 -0 -0 -0 -0 -0 -0 -0 -0 -0 -0 -0 -0 -0 -0 -0 -0 -0 -0 -0 -0 -0 -0 -0 -0 -0 -0
-0 -0 -0 -0 -0 -0 -0 -0 -0 -0 -0 -0 -0 -0 -0 -0 -0 -0 -0 -0 -0 -0 -0 -0 -0 -0 -0 -0 -0 -0 -0 -0 -0 -0 -0 -0 -0 -0 -0 -0 -0 -0 -0 -0
-0 -0 -0 -0 -0 -0 -0 -0 -0 -0 -0 -0 -0 -0 -0 -0 -0 -0 -0 -0 -0 -0 -1 -0 -0 -0 -0 -0 -0 -0 -0 -0 -0 -0 -0 -0 -0 -0 -0 -0 -0 -0 -0 -0
-0 -0 -0 -0 -0 -0 -0 -0 -0 -0 -0 -0 -0 -0 -0 -0 -0 -0 -0 -0 -0 -0 -0 -0 -0 -0 -0 -0 -0 -0 -0 -0 -0 -0 -0 -0 -0 -0 -0 -0 -0 -0 -0 -0
-0 -0 -0 -0 -0 -0 -0 -0 -0 -0 -0 -0 -0 -0 -0 -0 -0 -0 -0 -0 -0 -0 -0 -0 -0 -0 -0 -0 -0 -0 -0 -0 -0 -0 -0 -0 -0 -0 -0 -0 -0 -0 -0 -0
-0 -0 -0 -0 -0 -0 -0 -0 -0 -0 -0 -0 -0 -0 -0 -0 -0 -0 -0 -10 -0 -0 -0 -0 -0 -0 -0 -0 -0 -0 -0 -0 -0 -0 -0 -0 -0 -0 -0 -0 -0 -0 -0 -0
Wind_Speed
17 16 17 17 19 18 18 23 29 19 14 19 20 23 20 20 21 20 20 20 18 18 19 20 16 14 18 17 18 18 17 17 16 17 19 17 18 21 21 26 27 25 26 28
18 17 18 18 18 16 21 23 21 16 13 24 23 20 20 19 20 20 19 16 18 19 19 20 15 18 19 20 17 18 19 15 18 17 20 20 21 20 19 19 24 25 26 27
18 19 20 19 20 18 16 19 23 20 18 18 21 20 21 20 15 17 15 17 18 19 18 13 14 17 19 20 18 19 16 16 16 18 19 20 23 24 23 23 29 29 28 26
17 19 19 18 16 15 13 17 22 18 21 19 17 17 20 18 19 15 14 18 15 18 19 17 15 19 21 21 18 18 18 20 22 22 26 29 28 29 27 26 26 33 32 32
14 15 16 19 16 13 16 17 19 17 19 15 14 15 20 18 17 15 16 18 18 16 17 16 16 18 20 20 19 19 19 23 26 28 28 32 39 32 30 34 36 39 39 42
11 13 14 14 11 8 15 15 15 15 17 15 16 17 16 17 13 18 18 16 18 18 18 18 19 20 20 18 20 21 20 22 25 28 26 29 35 28 29 36 36 38 42 40
7 10 11 9 5 9 12 13 13 16 20 15 16 16 17 16 16 18 17 16 18 19 20 22 21 21 20 19 16 13 20 22 23 28 28 29 26 26 22 26 29 29 32 32
4 7 9 8 6 8 11 12 12 13 19 14 15 14 16 17 16 17 18 18 19 20 23 23 25 24 24 23 18 16 13 18 23 26 26 29 33 27 24 24 25 25 24 18
3 7 9 10 8 7 8 11 12 12 15 16 15 14 17 18 19 20 17 17 18 19 21 21 24 23 23 23 21 18 10 13 21 24 29 28 22 19 19 20 26 20 15 18
3 6 8 11 11 9 9 12 14 12 14 15 16 17 17 16 16 17 17 18 20 19 21 23 24 25 22 25 24 21 18 18 22 26 29 27 26 29 22 31 27 16 17 18
3 5 8 9 10 12 11 12 15 14 13 16 17 17 17 17 17 18 18 21 21 20 22 23 24 25 22 25 25 25 25 24 24 24 27 30 25 22 26 21 18 18 20 20
4 6 8 9 11 13 13 14 15 15 15 15 16 17 16 16 16 16 18 19 19 19 21 22 23 25 25 27 28 24 26 23 27 25 23 24 24 24 20 23 24 26 27 22
5 6 8 10 11 13 12 12 15 15 16 18 18 17 17 13 12 14 19 20 19 19 19 21 24 28 27 31 30 32 29 30 32 36 31 37 40 38 36 34 31 28 24 25
5 7 8 9 10 12 13 14 16 15 16 18 18 15 17 15 12 14 12 16 18 19 20 23 25 30 26 32 34 35 33 35 40 49 50 49 48 41 36 38 33 27 30 31
5 7 8 10 12 12 13 15 16 16 15 17 18 18 18 16 15 14 17 19 20 22 24 25 28 28 30 33 35 39 33 37 41 46 44 46 51 50 48 49 50 46 43 42
7 9 10 11 11 12 14 16 18 16 15 16 20 18 18 19 18 17 18 19 20 20 22 25 25 24 27 34 37 37 33 33 36 44 44 48 51 51 51 52 51 50 50 48
8 9 11 11 12 14 15 15 14 15 17 18 20 21 18 20 20 21 22 20 20 20 23 25 27 27 25 31 35 38 39 36 36 38 42 48 46 49 48 51 53 54 54 50
9 10 11 12 12 14 16 16 15 17 17 18 20 21 22 19 23 25 21 22 20 20 22 22 23 22 19 23 24 24 25 34 42 40 40 48 51 51 53 52 51 52 52 49
10 10 12 13 15 15 15 16 15 17 18 20 20 23 25 20 23 24 23 20 22 18 16 17 16 15 14 14 19 30 27 32 36 39 45 48 47 48 48 48 50 51 53 49
11 11 14 15 15 14 14 17 18 19 18 17 20 18 22 22 25 25 24 19 18 18 15 14 13 13 15 9 16 14 18 27 29 34 39 36 43 44 46 46 45 46 48 46
11 13 15 13 14 15 18 19 19 19 19 17 17 18 22 21 24 24 18 18 16 17 14 13 13 14 12 4 16 23 26 25 24 22 27 26 28 39 44 44 45 45 44 44
11 12 13 14 16 17 18 19 19 18 19 16 18 20 19 21 20 19 16 15 13 12 18 14 13 16 22 29 25 29 30 29 24 24 25 25 21 25 33 40 41 40 39 40
13 15 15 16 18 19 19 20 19 18 16 16 18 21 20 20 18 15 14 13 10 21 17 16 18 23 31 30 34 36 30 28 25 24 17 21 23 23 25 31 32 31 33 33
15 15 17 17 18 18 17 16 17 15 15 16 18 20 19 19 17 13 13 11 20 17 19 19 21 31 36 38 36 32 29 27 25 22 22 20 19 21 18 19 24 25 26 22
15 15 17 16 15 16 16 15 16 15 15 17 19 19 18 18 13 13 19 18 19 20 19 22 29 35 38 37 34 30 26 25 20 20 19 17 16 16 12 16 19 22 23 22
15 15 15 15 17 18 17 17 17 15 15 17 18 19 18 14 12 16 21 21 21 21 25 30 36 37 37 34 30 25 25 25 18 18 16 11 7 11 10 10 10 11 12 13
15 15 14 15 18 18 18 16 17 15 16 17 17 17 14 19 21 23 23 23 25 29 31 36 38 38 34 31 27 25 24 22 20 13 12 12 9 11 12 9 9 7 6 6
Wind_Direction
264 278 289 298 303 310 312 313 308 325 331 314 317 312 321 328 327 333 331 333 331 329 333 334 339 340 337 347 346 340 343 338 330 316 313 300 289 282 279 278 278 281 282 282
264 276 289 298 299 298 303 301 307 326 324 305 304 315 319 325 323 325 331 331 334 335 331 331 339 335 330 333 336 336 338 335 327 326 311 302 290 287 286 286 281 277 280 287
269 280 285 295 291 293 297 298 300 307 306 310 309 308 312 315 327 327 328 324 326 326 325 332 337 336 332 336 338 335 333 320 316 312 312 312 295 289 285 281 277 277 277 288
272 281 287 290 291 288 290 298 298 301 301 300 300 311 318 313 316 326 329 325 323 323 326 333 328 326 321 325 332 334 331 316 311 305 301 297 293 286 284 283 282 279 283 284
283 291 289 284 281 282 284 296 300 303 305 308 301 301 308 305 315 319 318 316 324 328 324 325 326 332 326 324 331 330 329 318 316 309 305 294 283 286 284 281 280 281 283 281
291 298 293 290 278 272 291 297 308 311 306 304 303 303 308 313 314 315 316 320 319 318 320 322 318 318 316 317 319 320 321 319 317 311 314 307 290 289 286 284 282 281 279 285
312 317 318 311 286 290 303 301 306 302 299 301 301 313 311 312 316 313 321 328 324 323 324 321 317 311 308 307 303 302 312 314 313 308 311 303 305 309 305 299 295 290 286 289
343 355 354 354 324 306 303 308 309 306 302 301 309 308 308 311 315 313 316 320 321 323 320 320 316 314 313 308 298 294 290 304 308 305 304 306 301 305 308 302 301 304 297 298
29 32 8 14 2 347 324 314 316 318 310 306 317 304 308 309 312 313 316 326 328 324 318 318 312 311 315 315 319 331 303 295 299 304 301 306 319 322 330 322 296 318 317 306
10 17 17 17 7 353 339 319 320 322 314 322 315 309 310 318 318 319 321 319 321 323 316 310 307 305 311 306 306 311 312 304 292 293 295 303 307 307 314 294 297 316 314 307
7 1 3 356 349 330 324 326 328 319 323 319 317 317 316 318 320 315 319 317 317 316 312 312 310 308 309 307 303 298 299 301 299 295 293 296 316 308 299 311 316 313 309 302
338 335 347 344 333 330 328 317 328 331 322 322 326 325 326 326 329 319 318 318 320 319 315 316 316 311 311 309 301 310 299 302 295 294 297 302 314 313 318 316 309 303 299 299
354 346 346 340 340 338 343 338 333 333 325 325 326 327 340 340 331 337 316 317 319 317 322 315 312 305 309 302 300 299 300 303 295 294 291 287 288 292 292 294 298 301 301 294
354 335 342 349 352 347 341 337 335 339 339 323 326 353 347 352 345 337 332 330 328 325 321 313 308 305 309 301 299 296 298 300 294 287 286 287 282 286 290 288 294 296 295 291
2 4 356 349 346 351 356 354 349 352 343 327 329 339 347 346 339 329 324 321 318 315 311 307 305 308 305 301 300 296 298 293 289 287 290 286 283 282 283 281 278 279 281 279
1 351 347 350 355 2 346 336 352 349 352 341 329 341 342 346 344 337 330 325 318 314 314 312 312 309 307 305 303 303 302 300 296 293 293 288 285 283 280 277 276 276 274 276
4 4 7 12 10 359 352 345 1 7 358 344 333 333 345 345 343 338 333 330 323 319 316 311 308 308 307 305 301 306 309 307 305 303 298 289 288 284 280 275 273 270 268 270
20 21 21 22 32 14 357 0 3 0 358 349 336 333 337 347 340 335 339 332 329 323 319 321 318 322 317 316 322 324 324 315 307 307 303 293 288 284 277 274 271 266 263 265
29 40 39 6 355 354 358 0 6 1 354 341 339 333 332 347 343 342 342 340 331 339 331 331 339 336 329 344 343 320 280 279 280 279 282 289 287 281 278 273 267 262 258 259
51 18 354 346 359 10 11 356 349 348 349 348 340 346 339 347 345 343 344 348 346 342 351 1 356 346 186 116 252 261 275 278 280 279 280 273 278 281 276 270 265 260 256 256
360 347 346 5 8 359 350 343 343 344 342 348 349 349 344 353 343 344 352 350 356 349 3 1 7 359 113 41 269 280 282 282 280 274 270 265 259 264 268 266 262 257 254 250
14 18 16 4 352 349 342 341 344 343 341 350 349 350 353 352 356 353 360 358 6 1 274 329 351 208 286 293 288 292 293 289 286 281 276 269 260 253 252 257 256 252 250 245
9 359 353 350 343 336 336 333 337 340 349 352 352 348 352 354 357 356 6 4 14 260 276 286 273 285 300 297 301 301 297 293 290 288 278 274 271 267 245 233 244 246 238 238
354 347 337 339 340 339 341 342 346 352 353 352 352 349 350 353 353 357 356 299 261 284 262 286 271 296 302 305 303 299 297 295 294 288 287 283 282 287 285 234 227 230 229 235
351 350 339 341 348 349 351 353 350 352 352 347 346 345 346 346 347 323 281 270 264 254 278 269 288 300 303 303 301 297 295 294 293 288 284 284 287 294 275 210 218 224 226 232
356 352 348 352 348 346 349 348 343 348 346 344 344 341 343 345 325 290 252 254 260 270 273 286 299 301 303 300 297 293 291 293 288 283 274 262 237 248 232 256 249 238 233 231
353 351 356 348 345 345 344 347 346 348 344 339 340 338 342 296 270 252 247 256 266 276 282 293 299 300 298 295 292 291 289 289 286 273 261 250 199 156 305 281 257 249 241 231